Regional Weather Roundup
Issued by NWS Cleveland, OH

Home | Current Version | Previous Version | Graphics & Text | Print | Product List | Glossary On
Versions: 1 2 3 4 5 6 7 8 9 10 11 12 13 14 15 16 17 18 19 20 21 22 23 24 25 26 27 28 29 30 31 32 33 34 35 36 37 38 39 40 41 42 43 44 45 46 47 48 49 50
000
ASUS41 KCLE 280710
RWRCLE
OHIO REGIONAL WEATHER ROUNDUP
NATIONAL WEATHER SERVICE CLEVELAND, OH
200 AM EST SUN DEC 28 2014

NOTE: "FAIR" INDICATES FEW OR NO CLOUDS BELOW 12,000 FEET WITH NO
SIGNIFICANT WEATHER AND/OR OBSTRUCTIONS TO VISIBILITY.

OHZ001>008-015>018-024>027-034-035-043-044-280800-
   NORTHWEST OHIO

CITY           SKY/WX    TMP DP  RH WIND       PRES   REMARKS
DEFIANCE       CLOUDY    36  32  85 NW7       30.04S
FINDLAY        CLOUDY    36  33  89 W12       30.01S
TOLEDO EXPRESS CLOUDY    36  31  82 NW13      30.00F
TOLEDO EXEC    CLOUDY    37  33  85 W8        30.01F
LIMA           CLOUDY    37  33  85 W12       30.02S
$$

OHZ009>014-019>023-028>033-038-089-280800-
   NORTHEAST OHIO

CITY           SKY/WX    TMP DP  RH WIND       PRES   REMARKS
CLE-HOPKINS    LGT RAIN  39  36  89 NW18      30.00F FOG
CLE-LAKEFRONT  LGT RAIN  38  36  92 W15       29.98F
CUY CO. ARPT   NOT AVBL
LORAIN-ELYRIA  LGT RAIN  37  36  96 NW13      29.99F
ASHTABULA      RAIN      41  38  89 W13G23    29.96R
AKRON-CANTON   LGT RAIN  47  44  90 W8        29.96F FOG
WOOSTER        LGT RAIN  43  41  93 NW8       29.96F
MANSFIELD      LGT RAIN  38  37  97 W9        29.97F
YOUNGSTOWN     LGT RAIN  46  44  93 SW10      29.94F FOG
$$

OHZ042-051>053-060>062-070>072-077>081-280800-
  SOUTHWEST OHIO

CITY           SKY/WX    TMP DP  RH WIND       PRES   REMARKS
CINC-COVINGTON LGT RAIN  43  39  87 N13       30.02F
CINC-LUNKEN    LGT RAIN  45  45 100 NE6       30.01F
HAMILTON       LGT RAIN  43  42  97 NW7       30.03S
DAYTON         LGT RAIN  38  36  92 NW10      30.04R
WRIGHT-PAT AFB LGT RAIN  40  39  96 NW10      30.02R
DAYTON GENERAL LGT RAIN  42  40  92 NW8       30.01F
WILMINGTON     RAIN      45  44  97 S7        29.99F FOG
$$

OHZ036-037-039>041-045>050-054>059-063>069-073>076-082>088-280800-
  CENTRAL AND SOUTHEAST OHIO

CITY           SKY/WX    TMP DP  RH WIND       PRES   REMARKS
COLUMBUS       LGT RAIN  46  44  93 S3        29.97F
OSU AIRPORT    RAIN      43  42  97 NW9       29.99F FOG
BOLTON FIELD   LGT RAIN  45  45 100 SW8       30.00F
RICKENBACK AFB RAIN      45  45  99 S7        29.99F
NEWARK         CLOUDY    47  45  93 W5        29.98F
MARION         LGT RAIN  39  37  92 NW8       29.99F
LANCASTER      CLOUDY    48  45  89 W8        30.00F
ZANESVILLE     LGT RAIN  47  45  93 W7        29.99F FOG
NEW PHILLY     LGT RAIN  47  45  93 CALM      29.98F
$$


USA.gov is the U.S. government's official web portal to all federal, state and local government web resources and services.